• In Deutschland
  • Länderverzeichnis
  • Für 7 Tage
  • Wassertemperatur
  • Satellitenkarten
  • Wetterkarte
  • Widgets
  • user-avatar
    Anmelden

    Stündliche Wetter Bad Berneck im Fichtelgebirge

    Heute, 12 Dezember, Dienstag

    Zeit Temperatur Niederschläge Wind Luftdruck Luftfeuchtigkeit
    00:00 +1°C° 0,6 mm 4 m/S 698 mmHg 92%
    01:00 +2°C° 0 mm 3 m/S 699 mmHg 92%
    02:00 +1°C° 0,4 mm 4 m/S 699 mmHg 91%
    03:00 +1°C° 0,4 mm 5 m/S 700 mmHg 90%
    04:00 +1°C° 0,4 mm 6 m/S 701 mmHg 88%
    05:00 -1°C° 0,1 mm 6 m/S 702 mmHg 88%
    06:00 -1°C° 0,1 mm 6 m/S 703 mmHg 87%
    07:00 -2°C° 0,1 mm 6 m/S 704 mmHg 86%
    08:00 -2°C° 0,1 mm 6 m/S 705 mmHg 86%
    09:00 -2°C° 0,1 mm 6 m/S 706 mmHg 85%
    10:00 -3°C° 0,1 mm 6 m/S 708 mmHg 85%
    11:00 -2°C° 0,1 mm 6 m/S 709 mmHg 83%
    12:00 -2°C° 0,1 mm 6 m/S 710 mmHg 82%
    13:00 -2°C° 0,1 mm 6 m/S 711 mmHg 80%
    14:00 -1°C° 0 mm 5 m/S 712 mmHg 82%
    15:00 -2°C° 0 mm 5 m/S 712 mmHg 84%
    16:00 -2°C° 0 mm 4 m/S 713 mmHg 86%
    17:00 -2°C° 0,1 mm 4 m/S 714 mmHg 87%
    18:00 -2°C° 0,1 mm 4 m/S 714 mmHg 89%
    19:00 -2°C° 0,1 mm 4 m/S 715 mmHg 91%
    20:00 -2°C° 0,1 mm 4 m/S 716 mmHg 91%
    21:00 -3°C° 0,1 mm 4 m/S 716 mmHg 91%
    22:00 -2°C° 0,1 mm 3 m/S 717 mmHg 91%
    23:00 -2°C° 0 mm 3 m/S 717 mmHg 91%

    Morgen, 13 Dezember, Mittwoch

    Zeit Temperatur Niederschläge Wind Luftdruck Luftfeuchtigkeit
    00:00 -2°C° 0 mm 3 m/S 718 mmHg 91%
    01:00 -2°C° 0 mm 3 m/S 718 mmHg 92%
    02:00 -4°C° 0 mm 3 m/S 718 mmHg 92%
    03:00 -4°C° 0 mm 3 m/S 718 mmHg 93%
    04:00 -4°C° 0 mm 3 m/S 718 mmHg 93%
    05:00 -4°C° 0 mm 3 m/S 718 mmHg 92%
    06:00 -4°C° 0 mm 4 m/S 717 mmHg 92%
    07:00 -4°C° 0 mm 4 m/S 717 mmHg 91%
    08:00 -4°C° 0 mm 4 m/S 717 mmHg 89%
    09:00 -3°C° 0 mm 4 m/S 717 mmHg 88%
    10:00 -4°C° 0 mm 5 m/S 717 mmHg 86%
    11:00 -2°C° 0 mm 5 m/S 716 mmHg 83%
    12:00 -2°C° 0 mm 5 m/S 715 mmHg 81%
    13:00 -2°C° 0 mm 6 m/S 714 mmHg 78%
    14:00 -1°C° 0,1 mm 5 m/S 713 mmHg 79%
    15:00 -2°C° 0,1 mm 5 m/S 712 mmHg 80%
    16:00 -2°C° 0,1 mm 5 m/S 712 mmHg 80%
    17:00 -3°C° 0,5 mm 6 m/S 711 mmHg 83%
    18:00 -2°C° 0,5 mm 6 m/S 710 mmHg 86%
    19:00 -2°C° 0,5 mm 6 m/S 709 mmHg 88%
    20:00 -2°C° 0,9 mm 6 m/S 709 mmHg 89%
    21:00 -1°C° 0,9 mm 6 m/S 708 mmHg 89%
    22:00 +1°C° 0,9 mm 6 m/S 707 mmHg 90%
    23:00 +1°C° 0,3 mm 6 m/S 706 mmHg 90%

    übermorgen, 14 Dezember, Donnerstag

    Zeit Temperatur Niederschläge Wind Luftdruck Luftfeuchtigkeit
    00:00 +1°C° 0,3 mm 6 m/S 705 mmHg 90%
    01:00 0°C° 0,3 mm 7 m/S 704 mmHg 90%
    02:00 +2°C° 0,9 mm 7 m/S 704 mmHg 91%
    03:00 +2°C° 0,9 mm 7 m/S 704 mmHg 91%
    04:00 +2°C° 0,9 mm 7 m/S 704 mmHg 92%
    05:00 +2°C° 0,9 mm 7 m/S 704 mmHg 90%
    06:00 +2°C° 0,9 mm 7 m/S 703 mmHg 89%
    07:00 +2°C° 0,9 mm 7 m/S 703 mmHg 87%
    08:00 0°C° 0,4 mm 7 m/S 704 mmHg 83%
    09:00 -1°C° 0,4 mm 7 m/S 705 mmHg 79%
    10:00 -1°C° 0,4 mm 7 m/S 706 mmHg 75%
    11:00 -1°C° 0 mm 6 m/S 706 mmHg 73%
    12:00 -1°C° 0 mm 6 m/S 706 mmHg 72%
    13:00 0°C° 0 mm 5 m/S 706 mmHg 70%
    14:00 0°C° 0,1 mm 5 m/S 706 mmHg 75%
    15:00 -1°C° 0,1 mm 4 m/S 705 mmHg 80%
    16:00 -1°C° 0,1 mm 4 m/S 704 mmHg 85%
    17:00 -1°C° 1,2 mm 4 m/S 703 mmHg 88%
    18:00 -1°C° 1,2 mm 4 m/S 702 mmHg 90%
    19:00 -1°C° 1,2 mm 4 m/S 701 mmHg 93%
    20:00 -1°C° 0,8 mm 4 m/S 700 mmHg 93%
    21:00 0°C° 0,8 mm 4 m/S 700 mmHg 93%
    22:00 0°C° 0,8 mm 4 m/S 699 mmHg 94%
    23:00 0°C° 0,1 mm 5 m/S 700 mmHg 91%

    15 Dezember, Freitag

    Zeit Temperatur Niederschläge Wind Luftdruck Luftfeuchtigkeit
    00:00 -2°C° 0,1 mm 6 m/S 700 mmHg 88%
    01:00 -2°C° 0,1 mm 6 m/S 701 mmHg 85%
    02:00 -2°C° 0 mm 6 m/S 701 mmHg 86%
    03:00 -2°C° 0 mm 5 m/S 702 mmHg 88%
    04:00 -2°C° 0 mm 5 m/S 703 mmHg 89%
    05:00 -2°C° 0,1 mm 5 m/S 703 mmHg 89%
    06:00 -2°C° 0,1 mm 5 m/S 703 mmHg 90%
    07:00 -2°C° 0,1 mm 5 m/S 703 mmHg 90%
    08:00 -2°C° 0,2 mm 5 m/S 703 mmHg 89%
    09:00 -2°C° 0,2 mm 5 m/S 704 mmHg 88%
    10:00 -2°C° 0,2 mm 6 m/S 704 mmHg 87%
    11:00 -2°C° 0,1 mm 6 m/S 704 mmHg 87%
    12:00 -2°C° 0,1 mm 6 m/S 703 mmHg 86%
    13:00 0°C° 0,1 mm 5 m/S 703 mmHg 85%
    14:00 0°C° 0,2 mm 5 m/S 703 mmHg 86%
    15:00 -1°C° 0,2 mm 5 m/S 703 mmHg 86%
    16:00 -1°C° 0,2 mm 4 m/S 703 mmHg 87%
    17:00 -1°C° 0,2 mm 4 m/S 703 mmHg 88%
    18:00 -1°C° 0,2 mm 4 m/S 703 mmHg 89%
    19:00 -1°C° 0,2 mm 4 m/S 704 mmHg 91%
    20:00 -1°C° 0,2 mm 4 m/S 704 mmHg 91%
    21:00 -1°C° 0,2 mm 4 m/S 705 mmHg 91%
    22:00 -1°C° 0,2 mm 5 m/S 705 mmHg 91%
    23:00 -2°C° 0,1 mm 4 m/S 706 mmHg 92%

    16 Dezember, Samstag

    Zeit Temperatur Niederschläge Wind Luftdruck Luftfeuchtigkeit
    00:00 -2°C° 0,1 mm 3 m/S 706 mmHg 94%
    01:00 -2°C° 0,1 mm 2 m/S 706 mmHg 95%
    02:00 -2°C° 0,1 mm 3 m/S 707 mmHg 95%
    03:00 -2°C° 0,1 mm 3 m/S 707 mmHg 95%
    04:00 -2°C° 0,1 mm 3 m/S 708 mmHg 95%
    05:00 -3°C° 0,1 mm 4 m/S 708 mmHg 94%
    06:00 -3°C° 0,1 mm 4 m/S 709 mmHg 94%
    07:00 -3°C° 0,1 mm 4 m/S 709 mmHg 93%
    08:00 -3°C° 0,2 mm 4 m/S 710 mmHg 92%
    09:00 -2°C° 0,2 mm 4 m/S 711 mmHg 92%
    10:00 -2°C° 0,2 mm 4 m/S 711 mmHg 91%
    11:00 -2°C° 0,2 mm 5 m/S 712 mmHg 91%
    12:00 -2°C° 0,2 mm 5 m/S 712 mmHg 90%
    13:00 -1°C° 0,2 mm 5 m/S 712 mmHg 90%
    14:00 -2°C° 0,2 mm 5 m/S 712 mmHg 90%
    15:00 -2°C° 0,2 mm 5 m/S 712 mmHg 90%
    16:00 -2°C° 0,2 mm 5 m/S 712 mmHg 91%
    17:00 -2°C° 0,4 mm 4 m/S 713 mmHg 91%
    18:00 -2°C° 0,4 mm 4 m/S 713 mmHg 92%
    19:00 -2°C° 0,4 mm 4 m/S 714 mmHg 93%
    20:00 -2°C° 0,1 mm 4 m/S 714 mmHg 93%
    21:00 -3°C° 0,1 mm 4 m/S 714 mmHg 93%
    22:00 -2°C° 0,1 mm 3 m/S 714 mmHg 93%
    23:00 -2°C° 0,1 mm 3 m/S 715 mmHg 93%

    17 Dezember, Sonntag

    Zeit Temperatur Niederschläge Wind Luftdruck Luftfeuchtigkeit
    00:00 -2°C° 0,1 mm 3 m/S 715 mmHg 94%
    01:00 -4°C° 0,1 mm 3 m/S 715 mmHg 94%
    02:00 -4°C° 0 mm 3 m/S 716 mmHg 94%
    03:00 -4°C° 0 mm 3 m/S 716 mmHg 94%
    04:00 -4°C° 0 mm 3 m/S 716 mmHg 95%
    05:00 -4°C° 0,1 mm 3 m/S 717 mmHg 94%
    06:00 -4°C° 0,1 mm 3 m/S 717 mmHg 94%
    07:00 -4°C° 0,1 mm 3 m/S 717 mmHg 93%
    08:00 -4°C° 0,1 mm 4 m/S 718 mmHg 92%
    09:00 -4°C° 0,1 mm 4 m/S 719 mmHg 92%
    10:00 -4°C° 0,1 mm 4 m/S 719 mmHg 91%
    11:00 -3°C° 0,1 mm 4 m/S 719 mmHg 90%
    12:00 -3°C° 0,1 mm 4 m/S 720 mmHg 89%
    13:00 -3°C° 0,1 mm 4 m/S 720 mmHg 89%
    14:00 -3°C° 0,1 mm 4 m/S 720 mmHg 89%
    15:00 -3°C° 0,1 mm 4 m/S 720 mmHg 90%
    16:00 -2°C° 0,1 mm 3 m/S 721 mmHg 91%
    17:00 -2°C° 0,1 mm 3 m/S 721 mmHg 92%
    18:00 -2°C° 0,1 mm 3 m/S 722 mmHg 93%
    19:00 -2°C° 0,1 mm 3 m/S 722 mmHg 94%
    20:00 -2°C° 0 mm 3 m/S 722 mmHg 94%
    21:00 -4°C° 0 mm 3 m/S 723 mmHg 95%
    22:00 -4°C° 0 mm 3 m/S 723 mmHg 95%
    23:00 -4°C° 0,1 mm 3 m/S 723 mmHg 95%
    Mehr zeigen